Miscellaneous Local Product
Issued by NWS Hastings, NE

Home | Current Version | Previous Version | Text Only | Print | Product List | Glossary Off
Versions: 1 2 3 4 5 6 7 8 9 10 11 12 13 14 15 16 17 18 19 20 21 22 23 24 25 26 27 28 29 30 31 32 33 34 35 36 37 38 39 40 41 42 43 44 45 46 47 48 49 50

653
AXUS43 KGID 101502
MISGRI

GID CWA HOURLY WEATHER ROUNDUP
NATIONAL WEATHER SERVICE HASTINGS NE
900 AM CST WED FEB 10 2016

NOTE: "FAIR" INDICATES FEW OR NO CLOUDS BELOW 12,000 FEET WITH NO
SIGNIFICANT WEATHER AND/OR OBSTRUCTIONS TO VISIBILITY.

...SOUTH CENTRAL NEBRASKA...

CITY           SKY/WX    TMP DP  RH WIND       PRES   REMARKS
GRAND ISLAND   CLOUDY    28  22  78 SW9       29.91S WCI  19
HASTINGS       SUNNY     32  24  72 W12       29.92S WCI  23
ORD            CLOUDY    23  21  92 CALM      29.89S
YORK           SUNNY     25  21  86 SW8       29.92F WCI  16
AURORA         CLOUDY    26  22  85 SW8       29.91F WCI  18
LEXINGTON      CLOUDY    28  23  82 W7        29.94S WCI  21
HOLDREGE       SUNNY     32  24  72 W14       29.93S WCI  22
HEBRON         SUNNY     28  22  79 SW8       29.96F WCI  20

...NEBRASKA PANHANDLE...

CITY           SKY/WX    TMP DP  RH WIND       PRES   REMARKS
CHADRON        CLOUDY    43  24  47 SW9       30.01R
ALLIANCE       CLOUDY    31  23  72 W14       30.00S WCI  21
SCOTTSBLUFF    CLEAR     39  25  57 NW15      30.04S WCI  31
SIDNEY         CLOUDY    41  25  53 NW13      30.04R

...WESTERN AND NORTH CENTRAL NEBRASKA...

CITY           SKY/WX    TMP DP  RH WIND       PRES   REMARKS
VALENTINE      SUNNY     36  27  69 W5        29.88S WCI  32
AINSWORTH      SUNNY     38  29  71 W10       29.88S WCI  31
ONEILL         CLOUDY    30  27  88 W5        29.87F WCI  25
BROKEN BOW     SUNNY     36  26  67 CALM      29.90R
IMPERIAL       CLOUDY    37  23  56 W15       30.01S WCI  28
NORTH PLATTE   CLOUDY    31  24  75 W7        29.95F WCI  24
MCCOOK         CLOUDY    33  24  69 W15       29.99S WCI  23

...EASTERN NEBRASKA...

CITY           SKY/WX    TMP DP  RH WIND       PRES   REMARKS
NORFOLK        CLOUDY    25  20  81 SE6       29.90F WCI  18
SO SIOUX CITY  CLOUDY    25  17  72 SE15      29.97F WCI  13
TEKAMAH        CLOUDY    41  19  41 SE13      29.99S
COLUMBUS       MOSUNNY   25  12  58 S6        29.93S WCI  18
ALBION         CLOUDY    21  19  89 CALM      29.89F
OMAHA EPPLEY   CLOUDY    28  19  69 S14       30.00S WCI  17
OFFUTT AFB     CLOUDY    28  19  67 SE12      29.99F WCI  18
MILLARD        MOSUNNY   28  19  68 SE5       29.99F WCI  23
LINCOLN        CLOUDY    28  18  66 S13       29.96F WCI  17
NEBRASKA CITY  CLOUDY    29  15  55 S18       29.99F WCI  17
BEATRICE       SUNNY     28  18  65 S16       29.96F WCI  17
FALLS CITY     MOSUNNY   29  15  56 S9        30.04F WCI  20

...NORTHERN KANSAS...

CITY           SKY/WX    TMP DP  RH WIND       PRES   REMARKS
GOODLAND       CLOUDY    39  19  44 W16       30.07S WCI  30
HILL CITY      SUNNY     38  26  62 W7        29.99F WCI  33
NORTON         SUNNY     37  25  60 W10       29.97S WCI  30
PHILLIPSBURG   SUNNY     39  28  65 CALM      29.98S
SMITH CENTER   SUNNY     28  27  93 CALM      29.98S
BELOIT         SUNNY     30  25  80 CALM      29.98F
HAYS           SUNNY     39  23  52 W9        30.01S WCI  33
RUSSELL        SUNNY     37  28  70 SW13      29.99F WCI  29
CONCORDIA      SUNNY     32  23  69 SW13      29.97F WCI  22
SALINA         SUNNY     33  22  63 S16       30.03F WCI  23
TOPEKA         SUNNY     29  12  49 S14G21    30.08F WCI  18



USA.gov is the U.S. government's official web portal to all federal, state and local government web resources and services.